Emporia, Virginia, United States (23847)
Lat: 36.69N, Lon: 77.54W
Wx Zone: VAZ087
Local Info
Past Weather Observations for Saturday, July 26, 2014

NOTE: This archive is for the closest National Weather Service station to Emporia. Information may differ from the station used for current weather conditions.

Click here for Long-term Archive

Time Weather Temperature Dewpoint Humidity Pressure Winds Precip Visibility
23:55
Clear
73°F / 23°C 70°F / 21°C 89% 29.95 in
(1014 mb)
S 3.5 mph
(S 6 kph)
- 10SM
23:35
Clear
73°F / 23°C 70°F / 21°C 89% 29.95 in
(1014 mb)
Calm - 10SM
23:15
Clear
73°F / 23°C 70°F / 21°C 89% 29.95 in
(1014 mb)
Calm - 10SM
22:55
Clear
75°F / 24°C 70°F / 21°C 83% 29.95 in
(1014 mb)
Calm -
22:35
Clear
75°F / 24°C 70°F / 21°C 83% 29.95 in
(1014 mb)
SE 5.8 mph
(SE 9 kph)
- 10SM
22:15
Clear
73°F / 23°C 70°F / 21°C 89% 29.98 in
(1015 mb)
SE 3.5 mph
(SE 6 kph)
- 10SM
21:55
Clear
73°F / 23°C 72°F / 22°C 94% 29.98 in
(1015 mb)
Calm - 10SM
21:35
Fair
73°F / 23°C 72°F / 22°C 94% 29.98 in
(1015 mb)
SE 3.5 mph
(SE 6 kph)
-
21:15
Clear
73°F / 23°C 72°F / 22°C 94% 29.98 in
(1015 mb)
SE 3.5 mph
(SE 6 kph)
- 10SM
20:55
Fair
75°F / 24°C 72°F / 22°C 89% 29.98 in
(1015 mb)
Calm -
20:35
Clear
73°F / 23°C 72°F / 22°C 94% 29.98 in
(1015 mb)
Calm - 10SM
20:15
Clear
73°F / 23°C 72°F / 22°C 94% 29.98 in
(1015 mb)
Calm - 10SM
19:55
Fair
73°F / 23°C 70°F / 21°C 89% 29.98 in
(1015 mb)
Calm -
19:35
Clear
77°F / 25°C 72°F / 22°C 83% 29.98 in
(1015 mb)
Calm - 10SM
19:15
Clear
77°F / 25°C 72°F / 22°C 83% 29.98 in
(1015 mb)
Calm - 10SM
18:55
Clear
81°F / 27°C 72°F / 22°C 74% 29.95 in
(1014 mb)
Calm -
18:35
Clear
82°F / 28°C 72°F / 22°C 70% 29.95 in
(1014 mb)
Calm - 10SM
18:15
Clear
82°F / 28°C 72°F / 22°C 70% 29.95 in
(1014 mb)
S 3.5 mph
(S 6 kph)
-
17:55
Clear
84°F / 29°C 72°F / 22°C 66% 29.95 in
(1014 mb)
SSE 4.6 mph
(SSE 7 kph)
- 10SM
17:35
Clear
86°F / 30°C 70°F / 21°C 59% 29.95 in
(1014 mb)
S 4.6 mph
(S 7 kph)
- 10SM
17:15
Clear
86°F / 30°C 70°F / 21°C 59% 29.95 in
(1014 mb)
SSE 6.9 mph
(SSE 11 kph)
- 10SM
16:55
Partly Cloudy
86°F / 30°C 72°F / 22°C 62% 29.95 in
(1014 mb)
SSE 5.8 mph
(SSE 9 kph)
- 10SM
16:35
Partly Cloudy
86°F / 30°C 72°F / 22°C 62% 29.95 in
(1014 mb)
SSE 4.6 mph
(SSE 7 kph)
- 10SM
16:15
Partly Cloudy
86°F / 30°C 72°F / 22°C 62% 29.95 in
(1014 mb)
S 5.8 mph
(S 9 kph)
- 10SM
15:55
Partly Cloudy
86°F / 30°C 72°F / 22°C 62% 29.95 in
(1014 mb)
S 6.9 mph
(S 11 kph)
- 10SM
15:35
Partly Cloudy
86°F / 30°C 70°F / 21°C 59% 29.98 in
(1015 mb)
S 5.8 mph
(S 9 kph)
- 10SM
15:15
Partly Cloudy
86°F / 30°C 70°F / 21°C 59% 29.98 in
(1015 mb)
S 6.9 mph
(S 11 kph)
- 10SM
14:55
Partly Cloudy
86°F / 30°C 70°F / 21°C 59% 29.98 in
(1015 mb)
SSE 5.8 mph
(SSE 9 kph)
- 10SM
14:35
Partly Cloudy
86°F / 30°C 70°F / 21°C 59% 29.98 in
(1015 mb)
S 8.1 mph
(S 13 kph)
- 10SM
14:15
Partly Cloudy
86°F / 30°C 70°F / 21°C 59% 29.98 in
(1015 mb)
SSE 4.6 mph
(SSE 7 kph)
- 10SM
13:55
Partly Cloudy
84°F / 29°C 70°F / 21°C 62% 29.98 in
(1015 mb)
SSE 6.9 mph
(SSE 11 kph)
- 10SM
13:35
Partly Cloudy
84°F / 29°C 72°F / 22°C 66% 30.01 in
(1016 mb)
SSE 4.6 mph
(SSE 7 kph)
- 10SM
13:15
Partly Cloudy
86°F / 30°C 72°F / 22°C 62% 30.01 in
(1016 mb)
SE 10.4 mph
(SE 17 kph)
- 10SM
12:55
Partly Cloudy
84°F / 29°C 70°F / 21°C 62% 30.01 in
(1016 mb)
S 5.8 mph
(S 9 kph)
- 10SM
12:35
Clear
82°F / 28°C 72°F / 22°C 70% 30.01 in
(1016 mb)
S 5.8 mph
(S 9 kph)
- 10SM
12:15
Partly Cloudy
82°F / 28°C 72°F / 22°C 70% 30.04 in
(1017 mb)
S 5.8 mph
(S 9 kph)
- 10SM
11:55
Partly Cloudy
82°F / 28°C 72°F / 22°C 70% 30.04 in
(1017 mb)
S 8.1 mph
(S 13 kph)
- 10SM
11:35
Mostly Cloudy
81°F / 27°C 72°F / 22°C 74% 30.04 in
(1017 mb)
S 6.9 mph
(S 11 kph)
- 10SM
11:15
Mostly Cloudy
82°F / 28°C 72°F / 22°C 70% 30.04 in
(1017 mb)
S 4.6 mph
(S 7 kph)
- 10SM
10:55
Mostly Cloudy
81°F / 27°C 72°F / 22°C 74% 30.04 in
(1017 mb)
SW 6.9 mph
(SW 11 kph)
- 10SM
10:35
Mostly Cloudy
81°F / 27°C 72°F / 22°C 74% 30.04 in
(1017 mb)
S 3.5 mph
(S 6 kph)
- 10SM
10:15
Mostly Cloudy
79°F / 26°C 72°F / 22°C 79% 30.04 in
(1017 mb)
SSE 3.5 mph
(SSE 6 kph)
- 10SM
09:55
Mostly Cloudy
79°F / 26°C 72°F / 22°C 79% 30.04 in
(1017 mb)
SE 6.9 mph
(SE 11 kph)
- 10SM
09:35
Overcast
77°F / 25°C 70°F / 21°C 79% 30.06 in
(1018 mb)
SSE 5.8 mph
(SSE 9 kph)
- 10SM
09:15
Mostly Cloudy
77°F / 25°C 70°F / 21°C 79% 30.06 in
(1018 mb)
S 4.6 mph
(S 7 kph)
- 10SM
08:55
Clear
77°F / 25°C 70°F / 21°C 79% 30.06 in
(1018 mb)
S 4.6 mph
(S 7 kph)
- 10SM
08:35
Clear
77°F / 25°C 70°F / 21°C 79% 30.06 in
(1018 mb)
SE 9.2 mph
(SE 15 kph)
- 10SM
08:15
Clear
73°F / 23°C 70°F / 21°C 89% 30.06 in
(1018 mb)
S 5.8 mph
(S 9 kph)
- 10SM
07:55
Partly Cloudy
72°F / 22°C 68°F / 20°C 88% 30.06 in
(1018 mb)
SE 4.6 mph
(SE 7 kph)
- 10SM
07:35
Mostly Cloudy
70°F / 21°C 68°F / 20°C 94% 30.06 in
(1018 mb)
SE 4.6 mph
(SE 7 kph)
- 10SM
07:15
Overcast
70°F / 21°C 66°F / 19°C 88% 30.06 in
(1018 mb)
Calm - 10SM
06:55
Partly Cloudy
68°F / 20°C 66°F / 19°C 94% 30.06 in
(1018 mb)
SE 3.5 mph
(SE 6 kph)
- 10SM
06:35
Partly Cloudy
68°F / 20°C 64°F / 18°C 88% 30.06 in
(1018 mb)
Calm - 10SM
06:15
Mostly Cloudy
66°F / 19°C 64°F / 18°C 94% 30.04 in
(1017 mb)
Calm - 10SM
05:55
Mostly Cloudy
66°F / 19°C 64°F / 18°C 94% 30.06 in
(1018 mb)
Calm - 10SM
05:35
Mostly Cloudy
64°F / 18°C 64°F / 18°C 100% 30.04 in
(1017 mb)
Calm - 10SM
05:15
Partly Cloudy
64°F / 18°C 64°F / 18°C 100% 30.04 in
(1017 mb)
Calm - 10SM
04:55
Partly Cloudy
64°F / 18°C 64°F / 18°C 100% 30.04 in
(1017 mb)
Calm - 10SM
04:35
Partly Cloudy
64°F / 18°C 64°F / 18°C 100% 30.04 in
(1017 mb)
SE 4.6 mph
(SE 7 kph)
- 10SM
04:15
Clear
64°F / 18°C 64°F / 18°C 100% 30.04 in
(1017 mb)
Calm - 10SM
03:55
Partly Cloudy
64°F / 18°C 64°F / 18°C 100% 30.04 in
(1017 mb)
Calm - 10SM
03:35
Partly Cloudy
66°F / 19°C 64°F / 18°C 94% 30.04 in
(1017 mb)
Calm - 10SM
03:15
Partly Cloudy
64°F / 18°C 64°F / 18°C 100% 30.04 in
(1017 mb)
Calm - 10SM
02:55
Partly Cloudy
64°F / 18°C 64°F / 18°C 100% 30.04 in
(1017 mb)
Calm - 10SM
02:35
Partly Cloudy
64°F / 18°C 64°F / 18°C 100% 30.04 in
(1017 mb)
Calm - 10SM
02:15
Partly Cloudy
64°F / 18°C 63°F / 17°C 94% 30.04 in
(1017 mb)
Calm - 10SM
01:55
Clear
64°F / 18°C 64°F / 18°C 100% 30.04 in
(1017 mb)
Calm - 10SM
01:35
Clear
64°F / 18°C 64°F / 18°C 100% 30.04 in
(1017 mb)
Calm - 10SM
01:15
Clear
64°F / 18°C 63°F / 17°C 94% 30.04 in
(1017 mb)
Calm - 10SM
00:55
Clear
64°F / 18°C 64°F / 18°C 100% 30.04 in
(1017 mb)
Calm - 10SM
00:35
Clear
66°F / 19°C 64°F / 18°C 94% 30.04 in
(1017 mb)
Calm - 10SM
00:15
Clear
68°F / 20°C 64°F / 18°C 88% 30.04 in
(1017 mb)
SE 3.5 mph
(SE 6 kph)
- 10SM
Time Weather Temperature Dewpoint Humidity Pressure Winds Precip Visibility


Weather for websites

WeatherForYou.com, LLC is not responsible for any damages or problems caused by this service. Current weather conditions are obtained from the closest station including government and personal stations which may have varying degrees of accuracy. Weather forecasts are derived from the NOAA NDFD. Like all things, this site belongs to Jesus Christ... He just trusts me to maintain it. If you have any questions or comments email webmaster@weatherforyou.com

Copyright © 2014, WeatherForYou.com LLC. All rights reserved.